DW7346 Weather Reports


Display with metric or nautical units.
time (UTC)temp
F
wind
direction
speed
MPH
gust
MPH
rain 1hr
in
rain 24hr
in
rain mn
in
humidity
%
barometer
mb
20260903141551 80 147 1.0 5.0 0.00 0.00 0.00 85 1010.9
20260903140049 80 120 0.0 4.0 0.00 0.00 0.00 85 1010.8
20260903134600 79 110 0.0 5.0 0.00 0.00 0.00 85 1010.7
20260903133051 79 110 0.0 4.0 0.00 0.00 0.00 85 1010.6
20260903131545 79 114 1.0 4.0 0.00 0.00 0.00 85 1010.5
20260903130046 78 124 1.0 4.0 0.00 0.00 0.00 85 1010.6
20260903124542 77 110 0.0 3.0 0.00 0.00 0.00 86 1010.5
20260903123043 77 118 0.0 3.0 0.00 0.00 0.00 86 1010.3
20260903121550 77 180 0.0 1.0 0.00 0.00 0.00 85 1010.0
20260903120053 77 179 0.0 1.0 0.00 0.00 0.00 85 1010.0
20260903114557 77 212 0.0 0.0 0.00 0.00 0.00 85 1009.9
20260903113039 77 212 0.0 0.0 0.00 0.00 0.00 85 1010.1
20260903111538 78 212 0.0 1.0 0.00 0.00 0.00 84 1010.1
20260903110036 78 213 0.0 1.0 0.00 0.00 0.00 83 1009.9
20260903104534 79 213 0.0 0.0 0.00 0.00 0.00 83 1009.8
20260903103034 79 213 0.0 0.0 0.00 0.00 0.00 82 1009.7
20260903101533 79 217 0.0 2.0 0.00 0.00 0.00 82 1009.9
20260903100033 79 177 0.0 3.0 0.00 0.00 0.00 83 1009.9
20260903094531 79 207 0.0 3.0 0.00 0.00 0.00 83 1009.9
20260903093032 79 179 0.0 3.0 0.00 0.00 0.00 84 1009.8
20260903091530 79 104 0.0 2.0 0.00 0.00 0.00 83 1009.8
20260903090029 79 104 0.0 2.0 0.00 0.00 0.00 82 1009.7
20260903084527 79 104 0.0 2.0 0.00 0.00 0.00 82 1009.6
20260903083026 80 102 1.0 4.0 0.00 0.00 0.00 82 1009.7
20260903081527 79 100 0.0 4.0 0.00 0.00 0.00 82 1009.8
20260903080025 79 108 0.0 4.0 0.00 0.00 0.00 82 1009.8
20260903074524 79 64 0.0 5.0 0.00 0.00 0.00 82 1009.8
20260903073025 80 74 2.0 5.0 0.00 0.00 0.00 81 1009.8
20260903071526 80 98 0.0 0.0 0.00 0.00 0.00 80 1009.7
20260903070019 80 98 0.0 4.0 0.00 0.00 0.00 79 1009.8
20260903064517 80 108 1.0 5.0 0.00 0.00 0.00 79 1009.9
20260903063019 80 91 0.0 4.0 0.00 0.00 0.00 78 1010.1
20260903061521 81 109 1.0 3.0 0.00 0.00 0.00 77 1010.1
20260903060012 81 134 2.0 7.0 0.00 0.00 0.00 77 1010.3
20260903054513 82 85 3.0 9.0 0.00 0.00 0.00 76 1010.5
20260903053006 83 128 3.0 9.0 0.00 0.00 0.00 73 1010.4
20260903051504 83 74 2.0 6.0 0.00 0.00 0.00 72 1010.3
20260903050001 84 103 2.0 6.0 0.00 0.00 0.00 71 1010.3
20260903044602 84 91 2.0 8.0 0.00 0.00 0.00 70 1010.1
20260903043100 84 105 2.0 7.0 0.00 0.00 0.00 69 1010.1
20260903041612 85 101 2.0 6.0 0.00 0.00 0.00 68 1010.1
20260903040058 86 80 1.0 6.0 0.00 0.00 0.00 66 1010.2
20260903034558 86 84 2.0 7.0 0.00 0.00 0.00 65 1010.1
20260903033059 87 158 1.0 8.0 0.00 0.00 0.00 64 1010.1
20260903031557 88 143 2.0 9.0 0.00 0.00 0.00 63 1010.0
20260903030056 89 107 3.0 10.0 0.00 0.00 0.00 61 1009.8
20260903024557 90 159 2.0 13.0 0.00 0.00 0.00 58 1009.6
20260903023055 91 64 3.0 7.0 0.00 0.00 0.00 56 1009.3
20260903021554 91 68 3.0 8.0 0.00 0.00 0.00 55 1009.1
20260903020056 91 70 3.0 9.0 0.00 0.00 0.00 55 1009.0
20260903014612 92 78 3.0 11.0 0.00 0.00 0.00 56 1008.8
20260903013102 92 63 3.0 7.0 0.00 0.00 0.00 56 1008.6
20260903011614 93 120 3.0 8.0 0.00 0.00 0.00 56 1008.4
20260903010105 93 105 3.0 9.0 0.00 0.00 0.00 55 1008.3
20260903004552 94 98 3.0 9.0 0.00 0.00 0.00 54 1008.4
20260903003106 95 127 4.0 10.0 0.00 0.00 0.00 53 1008.4
20260903001557 97 49 3.0 8.0 0.00 0.00 0.00 51 1008.2
20260903000050 98 81 1.0 6.0 0.00 0.00 0.00 46 1008.1
20260902234548 99 51 3.0 6.0 0.00 0.00 0.00 45 1008.0
20260902233048 99 91 2.0 8.0 0.00 0.00 0.00 45 1008.0
20260902231550 100 88 2.0 7.0 0.00 0.00 0.00 44 1007.9
20260902230054 100 71 1.0 6.0 0.00 0.00 0.00 46 1007.9
20260902224543 100 2 1.0 4.0 0.00 0.00 0.00 44 1008.0
20260902223043 100 33 1.0 6.0 0.00 0.00 0.00 45 1008.1
20260902221538 100 45 2.0 8.0 0.00 0.00 0.00 46 1008.2
20260902220037 100 319 1.0 5.0 0.00 0.00 0.00 46 1008.4
20260902214531 100 98 2.0 5.0 0.00 0.00 0.00 46 1008.5
20260902213026 100 51 1.0 5.0 0.00 0.00 0.00 46 1008.7
20260902211522 100 84 1.0 7.0 0.00 0.00 0.00 47 1008.8
20260902210019 99 107 3.0 7.0 0.00 0.00 0.00 47 1009.0
20260902204514 98 142 1.0 5.0 0.00 0.00 0.00 48 1009.2
20260902203011 99 1 1.0 5.0 0.00 0.00 0.00 47 1009.4
20260902201508 98 122 3.0 6.0 0.00 0.00 0.00 48 1009.7
20260902200008 98 1 2.0 7.0 0.00 0.00 0.00 49 1010.0
20260902194503 98 1 2.0 4.0 0.00 0.00 0.00 48 1010.2
20260902193059 97 359 1.0 6.0 0.00 0.00 0.00 51 1010.3
20260902191555 97 350 2.0 7.0 0.00 0.00 0.00 51 1010.8
20260902190051 97 65 3.0 7.0 0.00 0.00 0.00 51 1010.9
20260902184547 96 69 2.0 6.0 0.00 0.00 0.00 51 1011.1
20260902183044 96 359 1.0 7.0 0.00 0.00 0.00 53 1011.3
20260902181542 96 284 2.0 6.0 0.00 0.00 0.00 55 1011.5
20260902180039 96 58 1.0 5.0 0.00 0.00 0.00 56 1011.9
20260902174537 95 69 1.0 5.0 0.00 0.00 0.00 57 1012.1
20260902173036 95 89 1.0 5.0 0.00 0.00 0.00 57 1012.4
20260902171534 94 20 2.0 7.0 0.00 0.00 0.00 58 1012.5
20260902170032 94 359 1.0 5.0 0.00 0.00 0.00 58 1012.8
20260902164531 93 81 2.0 5.0 0.00 0.00 0.00 58 1012.9
20260902163027 92 82 0.0 7.0 0.00 0.00 0.00 59 1013.0
20260902161534 92 23 1.0 4.0 0.00 0.00 0.00 61 1013.1
20260902160023 91 103 2.0 4.0 0.00 0.00 0.00 62 1013.2
20260902154518 90 121 0.0 4.0 0.00 0.00 0.00 62 1013.2
20260902153014 89 79 0.0 4.0 0.00 0.00 0.00 64 1013.1
20260902151518 88 103 0.0 3.0 0.00 0.00 0.00 66 1013.1
20260902150011 86 82 1.0 4.0 0.00 0.00 0.00 69 1013.0
20260902144509 86 74 0.0 3.0 0.00 0.00 0.00 70 1013.1
20260902143007 85 167 0.0 2.0 0.00 0.00 0.00 71 1013.2